Regional Weather Roundup
Issued by NWS Albany, NY

Home | Current Version | Previous Version | Text Only | Print | Product List | Glossary On
Versions: 1 2 3 4 5 6 7 8 9 10 11 12 13 14 15 16 17 18 19 20 21 22 23 24 25 26 27
000
ASUS41 KALY 291710
RWRALY

NEW YORK STATE HOURLY WEATHER ROUNDUP
NATIONAL WEATHER SERVICE ALBANY NY
100 PM EDT THU SEP 29 2016

NOTE: "FAIR" INDICATES FEW OR NO CLOUDS BELOW 12,000 FEET WITH NO
SIGNIFICANT WEATHER AND/OR NO OBSTRUCTIONS TO VISIBILITY.

NYZ032-033-038>043-046>054-057>066-NYZ062>081-082-084-291800-
EAST


CITY           SKY/WX    TMP DP  RH WIND       PRES   REMARKS
ALBANY         CLOUDY    64  45  49 NE6       30.43F
GLENS FALLS    SUNNY     66  44  45 NE12      30.44F
POUGHKEEPSIE   MOSUNNY   66  45  46 E9        30.39F
NEWBURGH       CLOUDY    61  52  72 E12G17    30.42R
MONTGOMERY     CLOUDY    62  49  62 NE10      30.40S
WHITE PLAINS   PTSUNNY   64  50  60 E14       30.38F
ISLIP          CLOUDY    61  52  72 NE16G25   30.39R
NEW YORK CITY  CLOUDY    65  54  67 E17G25    30.37S
CENTRAL PARK   CLOUDY    62  53  72 E8G22     30.40S
$$

NYZ005>009-017-018-044>046-055-056-291800-
CENTRAL


CITY           SKY/WX    TMP DP  RH WIND       PRES   REMARKS
FULTON         CLOUDY    64  49  57 E7        30.38R
SYRACUSE       CLOUDY    59  49  69 E14       30.37R
ROME           CLOUDY    61  50  67 E14G22    30.42R
ELMIRA         LGT RAIN  59  54  83 NE8       30.32S
BINGHAMTON     CLOUDY    55  53  93 E7        30.36R
MONTICELLO     CLOUDY    55  46  71 E17G24    30.40S
$$

NYZ026>034-041>043-087-291800-
NORTH


CITY           SKY/WX    TMP DP  RH WIND       PRES   REMARKS
WATERTOWN      PTSUNNY   65  49  56 NE15      30.39F
FORT DRUM      NOT AVBL
OGDENSBURG     FAIR      66  52  60 NE14G21   30.45S
MASSENA        MOSUNNY   63  49  60 NE17G28   30.48F
SARANAC LAKE   MOSUNNY   63  43  48 E12       30.45S
PLATTSBURGH    SUNNY     63  49  60 VRB5      30.49S
$$

NYZ001>004-010>016-019>021-085-291800-
WEST


CITY           SKY/WX    TMP DP  RH WIND       PRES   REMARKS
NIAGARA FALLS  CLOUDY    59  53  80 E18G26    30.29S
BUFFALO        LGT RAIN  57  53  86 NE20      30.28F
DUNKIRK        LGT RAIN  61  58  90 NE12      30.22F
JAMESTOWN      CLOUDY    57  54  88 E7        30.23R
WELLSVILLE     LGT RAIN  56  54  93 E10G18    30.30F
ROCHESTER      CLOUDY    57  53  86 E12       30.35S
PENN YAN       LGT RAIN  57  55  93 VRB3      30.36R
$$

             KEY
       WCI = WIND CHILL INDEX
       VSB = VISIBILITY
       HX  = HEAT INDEX
$$




USA.gov is the U.S. government's official web portal to all federal, state and local government web resources and services.